Regional Weather Roundup
Issued by NWS Nashville, TN

Home | Current Version | Previous Version | Text Only | Print | Product List | Glossary On
Versions: 1 2 3 4 5 6 7 8 9 10 11 12 13 14 15 16 17 18 19 20 21 22 23 24 25 26 27 28 29 30 31 32 33 34 35 36 37 38 39 40 41 42 43 44 45 46 47 48 49 50
000
ASUS44 KOHX 201115
RWROHX
MIDDLE TENNESSEE HOURLY WEATHER ROUNDUP
NATIONAL WEATHER SERVICE NASHVILLE TN
500 AM CST SAT DEC 20 2014

NOTE: "FAIR" INDICATES FEW OR NO CLOUDS BELOW 12,000 FEET WITH
NO SIGNIFICANT WEATHER AND/OR OBSTRUCTIONS TO VISIBILITY.

* THESE REPORTS ARE NOT UNDER NWS QUALITY CONTROL AND MAY NOT
  REPORT WEATHER SUCH AS PRECIPITATION AND FOG.


TNZ005>011-023>034-057-059-062>066-078-080-201200
...NORTHERN MIDDLE TENNESSEE...

CITY           SKY/WX    TMP DP  RH WIND       PRES   REMARKS
CLARKSVILLE    CLOUDY    32  27  81 NE5       30.25R WCI  27
CROSSVILLE     CLOUDY    34  28  79 N3        30.15S
GALLATIN         N/A     29  26  88 CALM      30.23S
DICKSON        CLEAR     27  25  93 E3        30.21S
LEBANON        CLOUDY    32  26  78 N5        30.21R WCI  27
LIVINGSTON     CLOUDY    30  27  89 N5        30.19R WCI  25
NASHVILLE      CLEAR     31  26  82 N5        30.24R WCI  26
WEST NASHVILLE   N/A     28  28 100 CALM      30.24R
PORTLAND       CLEAR     27  25  93 N3        30.22S
SMYRNA         CLEAR     28  25  89 CALM      30.25R
SPARTA         MOCLDY    34  28  80 N3        30.19R
$$
TNZ056-058-060-061-075>077-079-093>097-201200
...SOUTHERN MIDDLE TENNESSEE...

CITY           SKY/WX    TMP DP  RH WIND       PRES   REMARKS
LEWISBURG      CLEAR     29  27  92 CALM      30.22R
MCMINNVILLE    PTCLDY    34  30  86 CALM      30.20R
MURFREESBORO   CLEAR     31  27  85 CALM      30.22R
SHELBYVILLE    CLEAR     30  28  93 N5        30.22R WCI  25
TULLAHOMA        N/A     28  27  93 N3        30.19R
WINCHESTER     CLEAR     32  30  93 CALM      30.19R
$$


...KEY TO REMARKS...
VSB - VISIBILITY IN MILES
WCI - WIND CHILL INDEX
HX  - HEAT INDEX



USA.gov is the U.S. government's official web portal to all federal, state and local government web resources and services.